Precipitable_Water
0.61 0.60 0.61 0.62 0.61 0.57 0.53 0.48 0.46 0.43 0.40 0.28 0.20 0.24 0.14 0.13 0.11 0.17 0.24 0.25 0.21 0.14 0.10 0.13 0.11 0.09 0.13 0.17 0.15 0.17 0.15 0.13 0.15 0.13 0.15 0.12 0.14 0.12 0.11 0.11 0.10 0.11 0.10 0.11 0.11 0.11 0.09 0.10 0.09 0.10 0.11 0.11 0.14 0.18 0.19 0.20 0.17 0.17 0.14 0.15 0.15 0.17 0.11 0.09 0.10 0.11 0.13 0.15 0.17 0.18 0.19 0.19 0.17 0.18 0.20 0.19 0.17 0.18 0.17 0.16 0.17 0.15 0.15 0.14 0.14 0.12 0.14
0.63 0.62 0.63 0.62 0.59 0.56 0.51 0.48 0.46 0.43 0.35 0.24 0.22 0.16 0.13 0.13 0.13 0.16 0.23 0.24 0.20 0.11 0.07 0.07 0.07 0.09 0.12 0.12 0.11 0.16 0.13 0.12 0.11 0.11 0.12 0.11 0.10 0.10 0.10 0.11 0.14 0.11 0.14 0.12 0.10 0.12 0.08 0.11 0.10 0.10 0.13 0.11 0.19 0.19 0.19 0.20 0.16 0.15 0.14 0.12 0.17 0.11 0.13 0.10 0.08 0.08 0.10 0.11 0.14 0.15 0.18 0.18 0.17 0.17 0.19 0.20 0.20 0.20 0.19 0.19 0.18 0.15 0.15 0.16 0.14 0.11 0.15
0.64 0.63 0.60 0.58 0.57 0.54 0.50 0.49 0.45 0.36 0.32 0.29 0.21 0.13 0.14 0.13 0.15 0.16 0.17 0.19 0.16 0.10 0.10 0.08 0.07 0.08 0.08 0.08 0.07 0.08 0.10 0.14 0.13 0.12 0.11 0.14 0.12 0.11 0.10 0.12 0.13 0.12 0.15 0.12 0.13 0.13 0.10 0.09 0.11 0.11 0.12 0.12 0.18 0.18 0.19 0.20 0.17 0.19 0.20 0.18 0.21 0.13 0.12 0.11 0.08 0.07 0.07 0.07 0.08 0.10 0.12 0.15 0.18 0.19 0.19 0.20 0.19 0.19 0.17 0.15 0.15 0.13 0.15 0.17 0.15 0.14 0.18
0.62 0.60 0.59 0.56 0.55 0.52 0.49 0.44 0.36 0.32 0.31 0.29 0.19 0.15 0.12 0.09 0.06 0.10 0.12 0.13 0.16 0.15 0.16 0.12 0.09 0.08 0.07 0.06 0.07 0.09 0.07 0.11 0.14 0.15 0.13 0.15 0.14 0.13 0.13 0.15 0.15 0.12 0.12 0.10 0.10 0.10 0.13 0.10 0.10 0.11 0.10 0.12 0.15 0.18 0.19 0.19 0.18 0.20 0.21 0.20 0.19 0.14 0.14 0.13 0.12 0.11 0.10 0.12 0.15 0.18 0.19 0.18 0.16 0.18 0.19 0.19 0.19 0.20 0.19 0.18 0.16 0.14 0.16 0.16 0.17 0.18 0.19
0.60 0.59 0.56 0.54 0.52 0.48 0.40 0.34 0.32 0.32 0.32 0.29 0.18 0.14 0.12 0.11 0.08 0.07 0.06 0.10 0.12 0.09 0.11 0.10 0.09 0.07 0.09 0.06 0.07 0.06 0.08 0.09 0.10 0.17 0.10 0.15 0.14 0.13 0.13 0.13 0.11 0.11 0.11 0.10 0.10 0.11 0.11 0.13 0.12 0.11 0.11 0.13 0.14 0.18 0.18 0.19 0.20 0.21 0.21 0.21 0.18 0.15 0.13 0.14 0.14 0.15 0.16 0.17 0.18 0.19 0.19 0.17 0.18 0.17 0.17 0.19 0.18 0.19 0.18 0.17 0.16 0.20 0.18 0.15 0.20 0.21 0.20
0.58 0.56 0.55 0.50 0.44 0.37 0.33 0.32 0.32 0.32 0.30 0.28 0.20 0.10 0.12 0.08 0.09 0.12 0.12 0.07 0.07 0.06 0.07 0.11 0.09 0.10 0.10 0.07 0.10 0.08 0.08 0.08 0.07 0.11 0.15 0.16 0.17 0.11 0.12 0.12 0.12 0.11 0.10 0.10 0.09 0.10 0.10 0.11 0.10 0.13 0.13 0.12 0.14 0.14 0.18 0.17 0.20 0.22 0.20 0.22 0.18 0.15 0.13 0.15 0.16 0.16 0.18 0.19 0.19 0.19 0.19 0.18 0.18 0.18 0.18 0.17 0.19 0.20 0.19 0.20 0.22 0.22 0.19 0.17 0.20 0.21 0.20
0.56 0.53 0.45 0.38 0.34 0.32 0.32 0.31 0.30 0.30 0.28 0.27 0.16 0.10 0.12 0.12 0.13 0.12 0.14 0.08 0.09 0.09 0.10 0.11 0.10 0.09 0.10 0.09 0.09 0.08 0.08 0.08 0.10 0.10 0.11 0.13 0.12 0.14 0.09 0.10 0.11 0.12 0.13 0.12 0.10 0.11 0.09 0.09 0.11 0.11 0.12 0.12 0.13 0.12 0.15 0.21 0.23 0.21 0.20 0.21 0.21 0.18 0.15 0.17 0.17 0.16 0.17 0.18 0.18 0.18 0.17 0.18 0.18 0.18 0.18 0.20 0.21 0.21 0.22 0.22 0.23 0.23 0.22 0.22 0.21 0.20 0.20
0.46 0.38 0.34 0.33 0.32 0.32 0.31 0.29 0.29 0.29 0.28 0.23 0.15 0.13 0.09 0.09 0.09 0.09 0.13 0.12 0.11 0.11 0.11 0.11 0.10 0.09 0.11 0.08 0.09 0.09 0.10 0.09 0.11 0.12 0.11 0.09 0.11 0.15 0.11 0.11 0.13 0.13 0.14 0.13 0.11 0.12 0.12 0.11 0.10 0.13 0.13 0.13 0.15 0.14 0.15 0.16 0.22 0.22 0.19 0.20 0.21 0.18 0.15 0.18 0.17 0.14 0.14 0.16 0.17 0.17 0.18 0.18 0.17 0.19 0.21 0.22 0.23 0.23 0.24 0.24 0.24 0.24 0.22 0.21 0.20 0.18 0.17
0.34 0.32 0.32 0.31 0.30 0.29 0.28 0.28 0.28 0.27 0.28 0.14 0.13 0.13 0.16 0.14 0.16 0.14 0.10 0.08 0.10 0.11 0.11 0.11 0.10 0.09 0.10 0.09 0.10 0.11 0.11 0.11 0.12 0.12 0.15 0.13 0.11 0.13 0.12 0.13 0.14 0.15 0.14 0.14 0.13 0.15 0.15 0.15 0.15 0.16 0.17 0.14 0.18 0.16 0.17 0.20 0.17 0.20 0.19 0.19 0.19 0.19 0.16 0.17 0.16 0.12 0.12 0.15 0.16 0.18 0.19 0.20 0.19 0.20 0.21 0.22 0.22 0.21 0.22 0.22 0.23 0.21 0.18 0.17 0.17 0.16 0.16
0.31 0.31 0.30 0.28 0.27 0.28 0.27 0.27 0.28 0.26 0.28 0.15 0.13 0.11 0.19 0.19 0.21 0.18 0.13 0.09 0.12 0.10 0.13 0.13 0.10 0.09 0.11 0.12 0.12 0.12 0.12 0.14 0.15 0.12 0.17 0.17 0.18 0.16 0.16 0.16 0.14 0.13 0.14 0.13 0.16 0.18 0.19 0.20 0.22 0.23 0.24 0.24 0.23 0.23 0.22 0.21 0.19 0.18 0.18 0.20 0.17 0.17 0.16 0.14 0.14 0.13 0.14 0.18 0.20 0.20 0.20 0.19 0.18 0.20 0.22 0.22 0.23 0.23 0.23 0.23 0.22 0.20 0.18 0.16 0.15 0.15 0.18
0.29 0.28 0.27 0.27 0.26 0.26 0.26 0.26 0.27 0.27 0.24 0.15 0.14 0.14 0.19 0.16 0.17 0.17 0.16 0.11 0.12 0.13 0.12 0.12 0.11 0.12 0.14 0.15 0.13 0.15 0.14 0.16 0.16 0.12 0.12 0.17 0.18 0.22 0.19 0.16 0.14 0.13 0.14 0.18 0.24 0.26 0.26 0.27 0.26 0.26 0.25 0.24 0.23 0.23 0.23 0.23 0.23 0.21 0.19 0.18 0.17 0.17 0.17 0.16 0.19 0.16 0.16 0.19 0.20 0.21 0.18 0.15 0.16 0.24 0.25 0.23 0.21 0.20 0.18 0.18 0.18 0.19 0.18 0.17 0.17 0.17 0.18
0.27 0.26 0.25 0.25 0.26 0.26 0.27 0.29 0.29 0.31 0.31 0.25 0.24 0.21 0.24 0.25 0.22 0.19 0.15 0.11 0.12 0.14 0.13 0.12 0.13 0.13 0.14 0.15 0.15 0.15 0.14 0.15 0.16 0.17 0.14 0.15 0.18 0.20 0.19 0.18 0.17 0.13 0.22 0.30 0.30 0.29 0.28 0.28 0.26 0.25 0.24 0.23 0.22 0.22 0.21 0.20 0.20 0.21 0.21 0.18 0.18 0.19 0.20 0.20 0.21 0.18 0.17 0.20 0.20 0.17 0.15 0.16 0.23 0.26 0.25 0.23 0.22 0.20 0.18 0.17 0.18 0.18 0.17 0.17 0.17 0.17 0.17
0.24 0.25 0.27 0.29 0.30 0.31 0.32 0.33 0.35 0.34 0.36 0.34 0.29 0.22 0.27 0.27 0.21 0.18 0.17 0.14 0.12 0.13 0.13 0.13 0.16 0.16 0.16 0.16 0.16 0.16 0.18 0.19 0.19 0.19 0.19 0.17 0.17 0.19 0.21 0.20 0.19 0.21 0.31 0.28 0.28 0.26 0.20 0.18 0.18 0.18 0.18 0.19 0.20 0.19 0.19 0.18 0.18 0.21 0.23 0.24 0.23 0.22 0.21 0.22 0.21 0.21 0.21 0.19 0.18 0.14 0.16 0.21 0.24 0.24 0.23 0.21 0.21 0.20 0.17 0.15 0.16 0.16 0.16 0.17 0.16 0.16 0.17
0.28 0.30 0.32 0.34 0.34 0.34 0.35 0.36 0.36 0.38 0.37 0.37 0.28 0.26 0.27 0.26 0.21 0.18 0.17 0.14 0.13 0.15 0.16 0.15 0.16 0.15 0.16 0.16 0.16 0.17 0.18 0.18 0.18 0.20 0.16 0.20 0.18 0.20 0.24 0.26 0.27 0.32 0.31 0.29 0.24 0.21 0.16 0.16 0.12 0.12 0.12 0.13 0.13 0.12 0.16 0.19 0.23 0.24 0.26 0.27 0.27 0.25 0.24 0.23 0.20 0.22 0.17 0.18 0.18 0.18 0.21 0.20 0.20 0.19 0.19 0.18 0.16 0.16 0.14 0.12 0.13 0.16 0.18 0.18 0.16 0.16 0.18
0.33 0.35 0.36 0.36 0.36 0.36 0.37 0.36 0.38 0.38 0.38 0.37 0.31 0.28 0.28 0.27 0.26 0.22 0.21 0.18 0.14 0.16 0.17 0.13 0.15 0.16 0.17 0.17 0.18 0.15 0.15 0.15 0.15 0.15 0.19 0.23 0.21 0.25 0.26 0.29 0.32 0.31 0.31 0.23 0.19 0.17 0.14 0.12 0.09 0.08 0.08 0.08 0.07 0.11 0.20 0.20 0.25 0.28 0.27 0.27 0.27 0.27 0.23 0.24 0.21 0.21 0.23 0.19 0.17 0.16 0.15 0.12 0.16 0.19 0.20 0.21 0.20 0.19 0.17 0.15 0.13 0.17 0.18 0.18 0.18 0.18 0.19
0.37 0.37 0.38 0.37 0.37 0.37 0.37 0.37 0.37 0.38 0.36 0.35 0.30 0.27 0.28 0.29 0.29 0.26 0.23 0.19 0.17 0.13 0.16 0.18 0.19 0.18 0.16 0.16 0.18 0.15 0.14 0.15 0.16 0.16 0.17 0.19 0.22 0.25 0.28 0.31 0.31 0.30 0.25 0.20 0.17 0.14 0.12 0.09 0.08 0.08 0.09 0.11 0.16 0.17 0.17 0.20 0.20 0.25 0.27 0.28 0.28 0.28 0.29 0.27 0.24 0.21 0.21 0.19 0.15 0.13 0.12 0.13 0.17 0.18 0.19 0.20 0.19 0.18 0.18 0.14 0.11 0.16 0.17 0.19 0.21 0.20 0.20
0.38 0.38 0.37 0.36 0.36 0.36 0.36 0.36 0.36 0.35 0.35 0.32 0.27 0.27 0.26 0.33 0.30 0.26 0.23 0.20 0.18 0.15 0.20 0.22 0.22 0.20 0.18 0.16 0.18 0.17 0.17 0.16 0.17 0.15 0.14 0.16 0.20 0.22 0.24 0.28 0.29 0.26 0.22 0.17 0.15 0.12 0.10 0.10 0.11 0.13 0.16 0.19 0.17 0.16 0.18 0.19 0.18 0.20 0.26 0.27 0.27 0.26 0.26 0.25 0.22 0.20 0.19 0.17 0.14 0.12 0.15 0.14 0.17 0.18 0.18 0.18 0.19 0.18 0.16 0.09 0.10 0.15 0.18 0.22 0.22 0.20 0.19
0.38 0.37 0.36 0.35 0.35 0.35 0.35 0.35 0.35 0.35 0.33 0.34 0.31 0.28 0.28 0.35 0.35 0.32 0.25 0.21 0.18 0.17 0.21 0.25 0.20 0.17 0.17 0.18 0.17 0.20 0.21 0.20 0.19 0.19 0.17 0.18 0.21 0.21 0.20 0.22 0.19 0.23 0.23 0.15 0.14 0.12 0.12 0.13 0.14 0.16 0.16 0.19 0.20 0.20 0.16 0.20 0.19 0.20 0.21 0.22 0.22 0.22 0.23 0.23 0.18 0.17 0.16 0.15 0.13 0.14 0.15 0.18 0.20 0.18 0.17 0.18 0.19 0.16 0.11 0.09 0.13 0.19 0.21 0.22 0.21 0.20 0.20
0.36 0.35 0.35 0.34 0.35 0.35 0.36 0.37 0.37 0.36 0.35 0.34 0.33 0.31 0.30 0.35 0.36 0.33 0.26 0.22 0.19 0.16 0.24 0.27 0.27 0.23 0.25 0.27 0.23 0.22 0.22 0.20 0.20 0.16 0.16 0.16 0.19 0.22 0.22 0.22 0.22 0.16 0.19 0.15 0.15 0.14 0.15 0.17 0.20 0.18 0.16 0.18 0.21 0.19 0.22 0.20 0.20 0.23 0.23 0.21 0.21 0.21 0.21 0.20 0.17 0.15 0.14 0.14 0.12 0.12 0.14 0.18 0.19 0.18 0.18 0.20 0.16 0.11 0.11 0.16 0.22 0.23 0.21 0.21 0.20 0.19 0.19
0.34 0.35 0.36 0.36 0.36 0.37 0.37 0.38 0.37 0.36 0.34 0.35 0.33 0.28 0.30 0.34 0.36 0.34 0.25 0.20 0.21 0.19 0.24 0.25 0.26 0.23 0.28 0.25 0.21 0.21 0.21 0.22 0.21 0.18 0.17 0.15 0.20 0.22 0.19 0.16 0.19 0.20 0.16 0.17 0.16 0.19 0.18 0.16 0.17 0.19 0.18 0.20 0.22 0.24 0.22 0.23 0.24 0.22 0.22 0.23 0.20 0.19 0.17 0.14 0.14 0.15 0.14 0.14 0.11 0.10 0.09 0.15 0.18 0.18 0.18 0.20 0.15 0.16 0.21 0.22 0.22 0.21 0.20 0.20 0.19 0.19 0.20
0.35 0.36 0.37 0.37 0.37 0.38 0.39 0.39 0.38 0.37 0.36 0.36 0.32 0.28 0.27 0.33 0.35 0.35 0.32 0.25 0.22 0.18 0.20 0.31 0.30 0.29 0.30 0.27 0.27 0.26 0.23 0.20 0.21 0.19 0.20 0.20 0.23 0.20 0.13 0.13 0.15 0.17 0.16 0.18 0.17 0.18 0.18 0.17 0.19 0.20 0.23 0.23 0.24 0.24 0.21 0.21 0.22 0.25 0.24 0.22 0.20 0.20 0.14 0.14 0.14 0.16 0.11 0.11 0.10 0.11 0.14 0.16 0.20 0.20 0.16 0.20 0.22 0.23 0.23 0.21 0.18 0.19 0.19 0.18 0.19 0.20 0.21
0.35 0.36 0.36 0.37 0.37 0.37 0.37 0.37 0.37 0.36 0.37 0.34 0.32 0.30 0.26 0.30 0.33 0.34 0.32 0.30 0.24 0.22 0.24 0.29 0.32 0.30 0.32 0.33 0.32 0.32 0.29 0.28 0.30 0.29 0.23 0.20 0.25 0.21 0.20 0.20 0.19 0.20 0.22 0.23 0.20 0.20 0.21 0.22 0.24 0.23 0.22 0.23 0.25 0.22 0.23 0.21 0.19 0.22 0.23 0.21 0.15 0.18 0.15 0.16 0.13 0.16 0.13 0.12 0.13 0.16 0.19 0.20 0.22 0.23 0.23 0.24 0.23 0.21 0.21 0.21 0.20 0.18 0.19 0.21 0.19 0.18 0.18
0.34 0.34 0.34 0.33 0.34 0.34 0.34 0.34 0.34 0.33 0.34 0.35 0.33 0.28 0.25 0.29 0.31 0.33 0.31 0.24 0.28 0.29 0.31 0.30 0.31 0.32 0.33 0.33 0.36 0.35 0.35 0.37 0.35 0.33 0.30 0.24 0.21 0.24 0.21 0.20 0.21 0.27 0.27 0.26 0.23 0.23 0.25 0.26 0.24 0.26 0.24 0.24 0.23 0.22 0.23 0.22 0.19 0.20 0.17 0.18 0.17 0.19 0.18 0.19 0.18 0.16 0.18 0.19 0.19 0.20 0.20 0.21 0.22 0.24 0.25 0.23 0.19 0.19 0.20 0.19 0.18 0.20 0.21 0.20 0.18 0.18 0.19
0.32 0.31 0.30 0.31 0.31 0.31 0.31 0.31 0.32 0.32 0.33 0.34 0.31 0.28 0.27 0.29 0.29 0.29 0.27 0.25 0.23 0.20 0.24 0.27 0.27 0.21 0.23 0.24 0.31 0.36 0.36 0.35 0.35 0.35 0.37 0.33 0.21 0.20 0.24 0.27 0.29 0.28 0.27 0.30 0.33 0.29 0.28 0.28 0.27 0.27 0.23 0.24 0.25 0.21 0.19 0.18 0.18 0.18 0.16 0.15 0.17 0.18 0.19 0.17 0.15 0.17 0.15 0.12 0.18 0.18 0.19 0.21 0.22 0.23 0.23 0.21 0.20 0.18 0.19 0.19 0.20 0.19 0.19 0.18 0.19 0.19 0.19
0.31 0.30 0.28 0.28 0.27 0.28 0.28 0.30 0.30 0.32 0.32 0.31 0.29 0.30 0.30 0.28 0.29 0.28 0.24 0.19 0.20 0.19 0.16 0.20 0.22 0.26 0.30 0.33 0.35 0.34 0.35 0.37 0.38 0.36 0.36 0.35 0.29 0.22 0.21 0.27 0.33 0.29 0.29 0.33 0.34 0.32 0.31 0.26 0.26 0.25 0.21 0.25 0.25 0.20 0.22 0.18 0.16 0.17 0.14 0.15 0.16 0.15 0.19 0.16 0.16 0.16 0.15 0.14 0.17 0.19 0.21 0.23 0.24 0.22 0.20 0.18 0.17 0.17 0.18 0.20 0.19 0.18 0.19 0.19 0.18 0.17 0.16
0.29 0.28 0.28 0.27 0.27 0.27 0.27 0.28 0.28 0.28 0.29 0.29 0.28 0.26 0.25 0.25 0.29 0.30 0.28 0.25 0.23 0.21 0.17 0.17 0.21 0.30 0.32 0.29 0.28 0.32 0.37 0.37 0.36 0.36 0.34 0.33 0.33 0.32 0.31 0.34 0.35 0.40 0.37 0.35 0.33 0.30 0.28 0.26 0.25 0.24 0.22 0.22 0.26 0.20 0.18 0.18 0.16 0.18 0.15 0.15 0.17 0.17 0.19 0.14 0.16 0.15 0.16 0.18 0.18 0.20 0.21 0.22 0.21 0.21 0.21 0.19 0.18 0.17 0.17 0.17 0.17 0.18 0.16 0.14 0.14 0.16 0.16
0.29 0.28 0.27 0.27 0.27 0.26 0.27 0.27 0.28 0.29 0.30 0.31 0.28 0.28 0.27 0.27 0.31 0.27 0.24 0.24 0.21 0.18 0.18 0.16 0.20 0.24 0.28 0.26 0.32 0.36 0.35 0.35 0.35 0.34 0.33 0.33 0.34 0.36 0.36 0.36 0.35 0.34 0.33 0.31 0.32 0.30 0.28 0.25 0.24 0.21 0.22 0.21 0.22 0.19 0.19 0.17 0.17 0.15 0.15 0.17 0.20 0.17 0.14 0.16 0.16 0.13 0.13 0.14 0.17 0.20 0.15 0.13 0.16 0.18 0.18 0.17 0.17 0.16 0.16 0.16 0.16 0.16 0.13 0.13 0.14 0.13 0.12
0.27 0.25 0.24 0.24 0.24 0.25 0.25 0.26 0.26 0.27 0.28 0.29 0.28 0.27 0.28 0.27 0.28 0.31 0.32 0.28 0.24 0.17 0.17 0.18 0.19 0.23 0.30 0.27 0.32 0.33 0.34 0.34 0.34 0.33 0.33 0.35 0.37 0.38 0.38 0.36 0.34 0.31 0.30 0.29 0.26 0.25 0.24 0.22 0.21 0.23 0.22 0.22 0.19 0.17 0.18 0.18 0.18 0.16 0.16 0.16 0.18 0.15 0.16 0.16 0.14 0.14 0.14 0.18 0.20 0.21 0.20 0.18 0.17 0.17 0.17 0.16 0.16 0.15 0.14 0.15 0.15 0.14 0.12 0.14 0.14 0.12 0.12
0.25 0.24 0.23 0.23 0.24 0.24 0.24 0.25 0.26 0.27 0.28 0.28 0.26 0.25 0.25 0.27 0.30 0.32 0.32 0.30 0.27 0.22 0.21 0.21 0.24 0.23 0.19 0.22 0.33 0.33 0.35 0.35 0.35 0.34 0.35 0.37 0.38 0.37 0.36 0.34 0.31 0.30 0.29 0.28 0.26 0.25 0.23 0.23 0.25 0.22 0.21 0.23 0.19 0.16 0.16 0.14 0.13 0.13 0.15 0.18 0.19 0.19 0.21 0.19 0.19 0.19 0.20 0.22 0.21 0.20 0.18 0.16 0.16 0.16 0.16 0.15 0.16 0.15 0.14 0.15 0.14 0.11 0.12 0.13 0.13 0.13 0.11
0.24 0.23 0.23 0.23 0.23 0.23 0.23 0.24 0.25 0.27 0.27 0.26 0.24 0.20 0.19 0.20 0.27 0.27 0.32 0.29 0.28 0.24 0.19 0.18 0.17 0.20 0.29 0.31 0.29 0.33 0.34 0.36 0.36 0.36 0.36 0.36 0.35 0.35 0.34 0.32 0.31 0.31 0.29 0.26 0.25 0.22 0.24 0.23 0.24 0.24 0.25 0.28 0.18 0.16 0.14 0.14 0.14 0.15 0.19 0.19 0.20 0.20 0.21 0.21 0.22 0.20 0.18 0.20 0.19 0.19 0.17 0.16 0.16 0.16 0.16 0.15 0.15 0.15 0.14 0.12 0.10 0.12 0.13 0.14 0.11 0.10 0.09
0.24 0.23 0.23 0.23 0.23 0.23 0.24 0.24 0.25 0.27 0.26 0.23 0.20 0.15 0.14 0.14 0.19 0.30 0.30 0.32 0.31 0.27 0.23 0.23 0.20 0.25 0.26 0.32 0.33 0.31 0.33 0.35 0.35 0.35 0.35 0.34 0.33 0.32 0.33 0.33 0.32 0.31 0.25 0.25 0.24 0.24 0.24 0.21 0.21 0.20 0.22 0.22 0.19 0.16 0.15 0.15 0.14 0.16 0.18 0.19 0.19 0.19 0.19 0.19 0.21 0.22 0.20 0.19 0.17 0.16 0.16 0.16 0.16 0.15 0.13 0.13 0.14 0.13 0.11 0.11 0.13 0.13 0.12 0.10 0.09 0.09 0.09
0.24 0.24 0.23 0.24 0.24 0.25 0.25 0.25 0.24 0.25 0.24 0.21 0.19 0.17 0.18 0.20 0.25 0.31 0.33 0.35 0.32 0.27 0.24 0.21 0.21 0.22 0.22 0.26 0.31 0.36 0.36 0.35 0.34 0.33 0.32 0.32 0.28 0.31 0.31 0.31 0.28 0.30 0.27 0.24 0.24 0.23 0.20 0.21 0.19 0.18 0.18 0.20 0.20 0.17 0.17 0.16 0.14 0.15 0.17 0.18 0.19 0.19 0.19 0.20 0.20 0.20 0.19 0.17 0.16 0.13 0.12 0.12 0.13 0.12 0.11 0.13 0.11 0.11 0.12 0.12 0.11 0.10 0.09 0.09 0.09 0.09 0.09
0.24 0.25 0.24 0.24 0.25 0.25 0.26 0.26 0.26 0.26 0.24 0.27 0.31 0.32 0.33 0.34 0.35 0.35 0.37 0.35 0.32 0.28 0.28 0.24 0.21 0.23 0.23 0.25 0.32 0.34 0.34 0.32 0.28 0.27 0.25 0.29 0.26 0.28 0.27 0.29 0.28 0.26 0.30 0.25 0.21 0.19 0.21 0.20 0.19 0.17 0.19 0.21 0.18 0.17 0.16 0.15 0.16 0.17 0.18 0.19 0.18 0.18 0.18 0.19 0.19 0.19 0.17 0.16 0.16 0.12 0.11 0.10 0.11 0.12 0.12 0.12 0.11 0.12 0.11 0.09 0.09 0.09 0.09 0.08 0.08 0.08 0.08
0.27 0.26 0.25 0.27 0.26 0.27 0.27 0.27 0.29 0.29 0.29 0.26 0.24 0.26 0.32 0.37 0.37 0.37 0.37 0.35 0.31 0.31 0.30 0.26 0.24 0.23 0.24 0.31 0.25 0.29 0.31 0.24 0.23 0.24 0.22 0.27 0.28 0.26 0.23 0.25 0.25 0.22 0.24 0.22 0.22 0.21 0.22 0.20 0.17 0.18 0.20 0.18 0.20 0.17 0.15 0.16 0.18 0.17 0.18 0.17 0.17 0.17 0.18 0.17 0.17 0.16 0.15 0.14 0.14 0.13 0.12 0.13 0.13 0.12 0.12 0.11 0.11 0.11 0.10 0.09 0.09 0.08 0.07 0.07 0.07 0.07 0.08
0.29 0.28 0.27 0.27 0.28 0.28 0.29 0.30 0.29 0.27 0.24 0.25 0.26 0.30 0.35 0.38 0.38 0.39 0.37 0.32 0.27 0.26 0.27 0.27 0.27 0.22 0.21 0.21 0.20 0.22 0.28 0.24 0.20 0.24 0.21 0.24 0.28 0.23 0.23 0.20 0.22 0.18 0.19 0.25 0.21 0.20 0.18 0.18 0.20 0.16 0.15 0.18 0.17 0.15 0.16 0.17 0.17 0.17 0.16 0.15 0.16 0.17 0.16 0.14 0.14 0.14 0.14 0.14 0.13 0.12 0.13 0.13 0.11 0.10 0.11 0.11 0.10 0.10 0.09 0.08 0.08 0.07 0.07 0.07 0.07 0.07 0.07
0.30 0.29 0.28 0.29 0.29 0.29 0.28 0.28 0.27 0.25 0.24 0.24 0.26 0.32 0.37 0.40 0.40 0.38 0.39 0.38 0.33 0.28 0.26 0.25 0.25 0.21 0.20 0.16 0.15 0.20 0.27 0.22 0.23 0.24 0.23 0.24 0.23 0.24 0.22 0.20 0.16 0.20 0.24 0.20 0.16 0.18 0.17 0.20 0.18 0.14 0.17 0.15 0.14 0.16 0.17 0.18 0.16 0.16 0.15 0.15 0.16 0.16 0.14 0.14 0.13 0.13 0.13 0.12 0.11 0.11 0.11 0.10 0.10 0.11 0.11 0.10 0.09 0.08 0.08 0.07 0.07 0.07 0.07 0.07 0.07 0.07 0.07
0.29 0.29 0.29 0.29 0.27 0.25 0.22 0.24 0.28 0.27 0.25 0.29 0.32 0.37 0.38 0.38 0.39 0.39 0.36 0.35 0.36 0.34 0.27 0.24 0.20 0.19 0.18 0.18 0.20 0.22 0.24 0.17 0.23 0.21 0.21 0.19 0.18 0.21 0.20 0.18 0.15 0.20 0.19 0.17 0.17 0.15 0.17 0.22 0.17 0.15 0.16 0.15 0.16 0.20 0.20 0.18 0.16 0.15 0.14 0.15 0.16 0.16 0.15 0.14 0.13 0.12 0.10 0.10 0.10 0.10 0.09 0.10 0.10 0.10 0.09 0.09 0.08 0.08 0.08 0.07 0.07 0.07 0.06 0.06 0.07 0.07 0.07
0.30 0.30 0.28 0.24 0.23 0.20 0.21 0.23 0.26 0.30 0.34 0.33 0.35 0.33 0.31 0.31 0.27 0.30 0.32 0.31 0.34 0.32 0.25 0.23 0.18 0.20 0.22 0.19 0.16 0.23 0.22 0.19 0.23 0.17 0.18 0.20 0.18 0.16 0.20 0.17 0.16 0.18 0.13 0.14 0.16 0.20 0.19 0.18 0.16 0.16 0.16 0.20 0.22 0.20 0.19 0.18 0.17 0.16 0.16 0.16 0.16 0.16 0.15 0.14 0.12 0.10 0.09 0.08 0.07 0.07 0.08 0.08 0.08 0.08 0.08 0.07 0.07 0.07 0.07 0.07 0.07 0.07 0.07 0.07 0.07 0.07 0.07
0.29 0.26 0.24 0.24 0.22 0.20 0.21 0.24 0.34 0.34 0.33 0.34 0.32 0.28 0.27 0.30 0.28 0.26 0.28 0.29 0.29 0.21 0.22 0.20 0.18 0.21 0.19 0.18 0.19 0.26 0.22 0.19 0.17 0.18 0.15 0.19 0.16 0.13 0.17 0.12 0.16 0.16 0.13 0.13 0.14 0.19 0.14 0.15 0.17 0.16 0.15 0.18 0.18 0.18 0.19 0.17 0.16 0.16 0.16 0.17 0.16 0.16 0.14 0.13 0.11 0.10 0.09 0.09 0.09 0.09 0.10 0.08 0.08 0.07 0.07 0.07 0.07 0.07 0.07 0.07 0.07 0.07 0.07 0.07 0.07 0.07 0.06
0.26 0.22 0.22 0.23 0.22 0.24 0.29 0.32 0.34 0.31 0.31 0.28 0.29 0.27 0.24 0.29 0.26 0.23 0.30 0.23 0.19 0.21 0.20 0.16 0.20 0.21 0.21 0.19 0.18 0.18 0.26 0.20 0.15 0.15 0.16 0.17 0.23 0.14 0.15 0.15 0.15 0.14 0.11 0.11 0.13 0.18 0.14 0.12 0.15 0.14 0.13 0.16 0.16 0.18 0.18 0.16 0.15 0.15 0.16 0.16 0.16 0.15 0.13 0.11 0.10 0.11 0.11 0.10 0.10 0.11 0.10 0.10 0.09 0.08 0.07 0.07 0.07 0.06 0.07 0.07 0.07 0.07 0.07 0.07 0.07 0.06 0.06
0.25 0.24 0.24 0.23 0.26 0.28 0.30 0.32 0.32 0.30 0.27 0.25 0.26 0.27 0.26 0.24 0.27 0.26 0.24 0.18 0.16 0.17 0.22 0.19 0.20 0.19 0.21 0.21 0.21 0.17 0.23 0.24 0.22 0.22 0.19 0.14 0.20 0.20 0.14 0.11 0.15 0.12 0.11 0.11 0.16 0.17 0.16 0.14 0.14 0.12 0.13 0.16 0.16 0.17 0.16 0.15 0.14 0.14 0.16 0.16 0.16 0.14 0.11 0.10 0.10 0.10 0.10 0.10 0.10 0.10 0.09 0.09 0.08 0.08 0.07 0.07 0.07 0.07 0.07 0.07 0.07 0.07 0.07 0.07 0.06 0.06 0.06
0.27 0.26 0.28 0.31 0.31 0.31 0.30 0.29 0.29 0.26 0.27 0.27 0.23 0.22 0.24 0.24 0.25 0.22 0.21 0.15 0.15 0.17 0.18 0.19 0.17 0.18 0.18 0.20 0.20 0.21 0.20 0.24 0.22 0.20 0.16 0.12 0.17 0.15 0.13 0.14 0.14 0.11 0.09 0.14 0.17 0.17 0.15 0.11 0.10 0.11 0.15 0.17 0.18 0.17 0.15 0.14 0.14 0.15 0.16 0.16 0.14 0.12 0.10 0.10 0.10 0.10 0.11 0.10 0.10 0.09 0.09 0.08 0.08 0.07 0.07 0.07 0.07 0.07 0.07 0.07 0.07 0.07 0.07 0.07 0.06 0.06 0.06
0.33 0.32 0.31 0.29 0.28 0.26 0.27 0.24 0.27 0.27 0.22 0.22 0.21 0.20 0.22 0.19 0.18 0.16 0.17 0.21 0.22 0.18 0.19 0.23 0.22 0.24 0.24 0.24 0.20 0.23 0.19 0.24 0.18 0.16 0.15 0.12 0.17 0.16 0.13 0.12 0.11 0.09 0.12 0.17 0.16 0.13 0.10 0.10 0.10 0.12 0.16 0.17 0.17 0.15 0.15 0.14 0.14 0.16 0.16 0.15 0.13 0.11 0.10 0.10 0.09 0.09 0.11 0.10 0.09 0.08 0.08 0.08 0.07 0.07 0.07 0.07 0.07 0.07 0.07 0.07 0.07 0.07 0.07 0.06 0.06 0.06 0.06
0.31 0.30 0.27 0.26 0.25 0.25 0.26 0.20 0.27 0.24 0.22 0.23 0.19 0.16 0.17 0.15 0.15 0.17 0.15 0.16 0.18 0.18 0.20 0.18 0.19 0.18 0.16 0.21 0.19 0.19 0.18 0.20 0.20 0.17 0.15 0.16 0.14 0.11 0.11 0.10 0.11 0.15 0.18 0.15 0.13 0.10 0.10 0.12 0.12 0.14 0.16 0.16 0.16 0.15 0.14 0.14 0.15 0.16 0.15 0.14 0.11 0.10 0.10 0.10 0.09 0.10 0.09 0.09 0.09 0.08 0.08 0.08 0.07 0.07 0.07 0.07 0.07 0.07 0.07 0.07 0.07 0.07 0.06 0.06 0.06 0.06 0.06
0.26 0.25 0.25 0.24 0.22 0.26 0.23 0.19 0.27 0.23 0.18 0.19 0.21 0.17 0.16 0.13 0.14 0.16 0.15 0.19 0.20 0.18 0.21 0.21 0.20 0.19 0.17 0.20 0.20 0.20 0.19 0.14 0.20 0.13 0.11 0.14 0.11 0.13 0.10 0.10 0.14 0.16 0.12 0.10 0.10 0.10 0.10 0.10 0.13 0.16 0.15 0.15 0.15 0.15 0.14 0.14 0.15 0.15 0.14 0.11 0.09 0.09 0.09 0.09 0.09 0.09 0.09 0.08 0.08 0.08 0.07 0.07 0.07 0.07 0.07 0.07 0.07 0.07 0.07 0.06 0.07 0.06 0.06 0.06 0.06 0.06 0.06
0.25 0.24 0.23 0.20 0.19 0.24 0.23 0.20 0.22 0.19 0.22 0.21 0.18 0.17 0.17 0.17 0.17 0.16 0.20 0.23 0.21 0.21 0.19 0.19 0.19 0.19 0.17 0.19 0.16 0.15 0.16 0.16 0.13 0.12 0.14 0.14 0.11 0.09 0.14 0.16 0.15 0.11 0.10 0.10 0.09 0.08 0.09 0.11 0.13 0.15 0.15 0.15 0.15 0.14 0.14 0.14 0.16 0.15 0.12 0.09 0.08 0.08 0.09 0.09 0.09 0.09 0.08 0.08 0.08 0.07 0.07 0.07 0.07 0.07 0.07 0.07 0.07 0.07 0.07 0.07 0.07 0.06 0.06 0.06 0.06 0.06 0.06
0.26 0.27 0.26 0.25 0.21 0.23 0.26 0.21 0.21 0.22 0.22 0.21 0.20 0.20 0.19 0.19 0.19 0.20 0.22 0.23 0.21 0.21 0.20 0.20 0.20 0.19 0.17 0.16 0.17 0.16 0.16 0.15 0.12 0.13 0.14 0.11 0.10 0.12 0.16 0.12 0.09 0.10 0.09 0.08 0.08 0.09 0.10 0.12 0.15 0.15 0.15 0.15 0.14 0.14 0.14 0.15 0.15 0.13 0.10 0.09 0.08 0.08 0.09 0.09 0.09 0.08 0.08 0.08 0.07 0.07 0.07 0.07 0.07 0.07 0.07 0.07 0.07 0.07 0.07 0.07 0.06 0.06 0.06 0.06 0.06 0.06 0.06
0.23 0.27 0.27 0.21 0.19 0.22 0.21 0.23 0.26 0.24 0.23 0.21 0.21 0.21 0.21 0.21 0.20 0.19 0.22 0.23 0.22 0.21 0.19 0.19 0.17 0.18 0.17 0.20 0.18 0.14 0.14 0.14 0.13 0.12 0.13 0.12 0.14 0.11 0.10 0.10 0.09 0.10 0.11 0.09 0.09 0.11 0.12 0.14 0.15 0.15 0.15 0.15 0.14 0.13 0.14 0.15 0.13 0.11 0.09 0.08 0.08 0.09 0.09 0.09 0.08 0.08 0.08 0.07 0.07 0.07 0.07 0.07 0.07 0.07 0.06 0.06 0.06 0.06 0.07 0.06 0.06 0.06 0.06 0.06 0.06 0.06 0.06
0.27 0.25 0.23 0.23 0.25 0.25 0.24 0.25 0.23 0.19 0.20 0.21 0.21 0.21 0.20 0.20 0.20 0.21 0.22 0.22 0.20 0.19 0.20 0.19 0.17 0.17 0.14 0.17 0.15 0.14 0.12 0.14 0.11 0.10 0.13 0.12 0.10 0.09 0.09 0.08 0.09 0.08 0.10 0.11 0.11 0.13 0.14 0.16 0.16 0.15 0.15 0.14 0.14 0.14 0.14 0.14 0.12 0.10 0.09 0.08 0.08 0.09 0.09 0.09 0.08 0.08 0.07 0.07 0.07 0.07 0.07 0.07 0.07 0.06 0.06 0.06 0.06 0.06 0.06 0.06 0.06 0.06 0.06 0.06 0.05 0.05 0.05
0.24 0.24 0.27 0.25 0.25 0.26 0.26 0.26 0.23 0.18 0.20 0.20 0.20 0.19 0.21 0.21 0.20 0.21 0.23 0.21 0.20 0.20 0.20 0.19 0.21 0.16 0.16 0.15 0.11 0.13 0.12 0.14 0.13 0.13 0.12 0.11 0.11 0.11 0.10 0.08 0.09 0.09 0.10 0.13 0.13 0.14 0.16 0.16 0.15 0.14 0.14 0.14 0.14 0.14 0.14 0.12 0.11 0.09 0.09 0.09 0.09 0.09 0.09 0.08 0.08 0.07 0.07 0.07 0.07 0.07 0.07 0.07 0.06 0.06 0.06 0.06 0.06 0.06 0.06 0.06 0.06 0.06 0.06 0.06 0.06 0.05 0.05
0.27 0.25 0.25 0.27 0.23 0.21 0.23 0.18 0.17 0.17 0.18 0.18 0.19 0.20 0.21 0.20 0.20 0.20 0.23 0.21 0.20 0.18 0.17 0.14 0.15 0.15 0.13 0.12 0.11 0.10 0.11 0.15 0.13 0.11 0.11 0.11 0.13 0.12 0.10 0.09 0.09 0.11 0.12 0.15 0.16 0.16 0.16 0.15 0.14 0.13 0.13 0.14 0.14 0.14 0.13 0.11 0.10 0.09 0.09 0.09 0.09 0.09 0.09 0.08 0.08 0.07 0.07 0.07 0.07 0.07 0.06 0.06 0.06 0.06 0.07 0.07 0.06 0.06 0.06 0.06 0.06 0.06 0.06 0.06 0.06 0.05 0.05
0.23 0.21 0.21 0.25 0.26 0.24 0.23 0.22 0.22 0.21 0.20 0.21 0.21 0.23 0.23 0.21 0.21 0.22 0.24 0.22 0.19 0.16 0.14 0.16 0.15 0.13 0.12 0.10 0.12 0.14 0.16 0.13 0.12 0.12 0.11 0.13 0.14 0.11 0.10 0.11 0.12 0.14 0.15 0.14 0.14 0.15 0.15 0.15 0.14 0.14 0.14 0.14 0.14 0.13 0.12 0.10 0.10 0.09 0.09 0.09 0.09 0.09 0.08 0.08 0.07 0.07 0.07 0.07 0.07 0.06 0.06 0.07 0.06 0.06 0.06 0.06 0.06 0.06 0.05 0.05 0.05 0.06 0.06 0.06 0.05 0.06 0.05
Wind_Speed
5 5 5 6 6 7 7 7 8 8 8 7 7 6 6 5 5 5 6 6 5 4 4 5 5 6 6 7 7 7 8 8 8 8 9 9 9 9 10 10 10 11 11 12 12 13 13 13 13 14 15 15 16 17 17 18 19 19 19 19 19 20 21 22 23 23 20 19 19 18 18 18 19 20 20 20 21 21 22 23 23 23 22 22 23 24 25
5 5 5 6 6 6 7 7 8 8 8 7 7 6 5 5 5 4 5 6 5 4 5 5 6 6 6 7 7 7 8 8 8 9 9 9 9 10 10 10 11 11 12 13 13 13 14 14 14 15 16 16 17 17 18 19 19 19 20 20 20 20 20 21 22 22 19 18 18 17 18 19 20 20 20 20 20 20 21 21 21 23 23 22 24 25 24
5 5 6 6 6 6 7 8 8 8 7 7 6 5 4 4 4 4 5 6 5 4 5 6 6 7 7 7 8 8 8 8 9 9 10 10 10 10 11 11 12 12 12 13 13 14 15 15 15 16 17 17 17 18 19 19 20 20 21 21 20 20 19 19 21 21 20 20 19 19 19 19 19 19 19 20 20 20 21 22 21 23 22 21 23 27 28
5 6 6 6 6 7 7 8 7 7 7 6 5 4 4 4 4 4 6 6 5 5 6 6 6 7 8 8 8 9 9 9 9 10 10 10 11 11 11 12 12 12 13 14 14 15 15 16 17 17 18 18 18 19 20 19 20 20 20 20 19 19 19 19 20 20 20 21 21 19 20 21 22 21 20 19 20 20 21 22 22 23 24 25 26 29 34
6 6 6 6 6 7 7 7 6 6 6 6 5 4 4 4 4 5 6 6 5 6 7 7 7 7 8 9 9 9 10 10 10 10 11 11 11 12 12 12 13 13 14 15 16 16 16 16 17 18 18 19 19 19 19 19 20 20 20 19 18 18 19 19 19 19 20 22 22 20 20 22 23 23 22 20 20 20 21 22 23 24 26 27 27 29 34
5 5 6 6 6 7 6 6 5 5 5 5 4 4 4 4 4 5 6 6 6 7 8 8 8 8 9 9 9 10 11 11 11 11 11 11 12 13 12 13 14 15 15 16 17 17 17 17 18 18 19 19 19 19 19 19 19 19 18 18 18 19 19 18 17 19 20 22 22 21 20 21 22 23 25 24 21 20 20 22 24 24 26 29 31 34 36
5 5 6 6 6 6 5 5 5 5 5 5 4 4 5 5 5 6 7 7 7 8 9 9 8 9 9 10 10 10 11 11 11 11 12 12 13 13 14 15 15 16 16 17 17 18 18 19 19 18 18 19 18 19 18 17 18 18 18 18 18 18 18 17 17 19 20 21 21 20 20 21 22 23 25 24 21 20 21 23 25 26 28 31 34 37 37
5 5 5 5 5 5 5 4 4 5 5 5 5 5 6 6 6 7 7 7 8 8 9 9 9 9 10 10 10 11 11 12 12 12 13 14 13 14 15 16 16 16 17 17 18 18 18 19 19 17 17 18 18 18 18 16 17 18 18 18 18 17 18 17 17 20 20 18 19 20 20 22 24 23 21 21 22 22 22 24 25 26 29 32 34 37 37
4 5 5 5 4 4 4 4 5 5 6 6 6 6 7 7 8 8 7 8 8 9 9 9 10 10 10 10 11 11 12 13 14 14 14 15 15 15 16 16 16 16 17 17 19 18 17 18 18 17 17 18 17 17 17 16 16 17 17 17 17 17 18 18 19 21 20 18 20 22 22 22 22 20 20 22 23 24 23 24 25 27 31 34 35 36 36
4 4 4 4 4 4 5 5 6 6 7 7 7 7 7 8 8 8 8 8 9 9 9 9 10 10 11 11 12 13 13 14 15 15 15 15 16 16 16 16 16 17 17 17 17 17 17 17 17 17 17 17 16 16 16 16 16 16 16 16 17 18 18 19 20 21 21 20 23 25 24 21 18 18 21 24 25 26 26 27 28 29 32 34 35 36 37
3 4 4 4 5 5 6 7 7 7 7 7 7 7 7 7 8 8 8 8 9 9 9 10 11 11 12 12 13 14 15 15 15 16 16 16 16 17 16 16 16 16 16 16 16 16 16 15 15 15 15 15 15 15 15 15 16 15 15 16 17 18 19 20 20 21 22 24 26 26 23 19 18 18 22 25 26 28 29 30 32 33 33 34 36 36 37
4 4 5 5 6 7 7 8 8 7 7 7 7 7 7 8 8 8 8 9 9 10 11 11 12 12 13 14 15 15 15 16 16 16 17 16 16 16 15 14 15 15 14 14 14 14 14 14 14 14 14 14 14 14 14 15 15 16 16 16 17 18 19 20 20 22 24 24 25 23 20 19 20 21 23 27 27 28 32 33 33 34 34 34 34 36 39
5 5 6 6 7 7 7 7 7 7 7 7 7 8 8 8 8 8 8 9 10 11 12 12 13 14 14 15 15 15 16 16 16 16 16 16 15 14 14 13 13 13 13 13 13 13 13 14 14 14 14 14 14 14 15 16 16 17 17 17 18 18 19 20 21 22 23 22 22 22 21 22 22 22 25 28 28 30 35 35 33 34 33 32 35 40 44
6 6 7 7 7 7 7 7 7 7 7 7 7 8 8 8 9 9 9 10 11 11 12 13 13 14 14 15 15 15 16 15 15 14 14 14 14 13 13 12 12 12 12 13 13 13 15 15 15 15 15 15 15 15 15 16 17 18 18 19 19 19 20 21 22 21 21 22 22 23 23 22 21 23 27 30 32 34 36 37 37 34 30 32 40 46 49
6 6 7 7 7 7 7 7 7 7 7 7 7 8 8 9 9 9 10 10 11 11 12 13 13 14 15 15 15 15 15 14 14 13 12 12 12 11 11 11 11 11 12 13 14 14 15 16 16 16 16 15 15 15 15 16 17 18 19 20 20 20 21 21 21 21 21 22 23 23 23 21 21 26 30 31 34 35 35 37 37 31 30 39 46 49 51
6 6 7 7 7 7 7 7 7 7 7 7 7 8 8 9 9 9 10 10 11 12 13 14 15 15 15 15 14 14 13 12 12 11 10 10 10 10 10 11 11 12 13 14 15 15 15 16 15 15 16 16 16 17 18 18 18 19 19 20 20 21 21 20 21 21 21 22 22 22 22 22 24 28 32 33 35 36 35 35 33 32 38 47 50 51 54
6 6 7 7 7 7 7 7 7 7 7 7 8 8 8 9 9 10 11 12 12 13 14 15 15 14 14 13 13 12 11 10 10 10 9 10 10 11 11 12 12 14 15 15 15 15 15 15 15 16 17 17 17 18 19 19 20 20 20 20 20 21 21 21 21 21 21 22 22 23 23 24 26 31 33 36 37 36 34 34 34 40 48 51 51 54 57
6 7 7 7 7 7 7 7 7 7 8 8 8 8 9 10 10 11 12 12 13 13 14 14 14 13 12 12 11 10 10 10 10 10 10 10 11 12 13 13 14 15 15 15 15 15 16 16 16 17 17 17 18 19 19 20 21 20 20 21 20 20 21 21 21 22 22 22 23 25 24 24 28 33 36 39 39 35 34 36 41 48 53 53 54 56 57
7 7 7 8 8 8 7 7 8 8 8 9 9 10 11 11 12 12 12 13 13 13 13 13 12 11 10 10 10 10 9 10 10 10 11 11 12 13 14 14 14 15 15 15 15 16 16 16 17 18 18 18 19 19 20 20 21 21 21 21 20 21 21 21 21 23 23 23 25 27 25 24 30 36 38 39 38 36 37 43 48 52 54 55 56 57 56
7 8 8 8 8 8 8 8 9 9 9 10 11 11 12 12 12 12 12 12 12 11 11 11 10 10 10 10 10 10 10 10 11 11 12 13 14 14 14 15 15 16 16 16 16 16 17 18 18 19 19 19 20 20 20 19 19 21 21 20 21 22 22 22 23 24 24 24 25 26 26 29 35 39 38 38 38 39 44 49 51 53 54 56 56 55 55
8 8 8 8 8 8 9 9 10 11 11 11 11 11 12 12 12 11 11 11 10 10 10 10 10 10 10 10 11 11 11 11 12 12 13 13 14 15 15 16 16 16 16 16 17 18 18 19 19 19 19 20 20 20 19 18 18 20 21 20 21 22 22 23 24 24 24 26 26 27 30 34 38 40 40 40 42 44 48 51 53 54 55 55 55 55 56
8 8 9 9 9 10 10 11 11 12 12 12 12 12 11 11 10 10 10 10 10 9 9 9 9 10 10 10 11 11 12 12 13 13 14 14 15 16 16 16 17 17 17 18 19 19 19 20 20 20 20 20 19 19 19 19 18 20 21 21 20 21 24 25 24 24 27 28 29 31 35 37 39 41 41 43 45 48 50 52 53 54 54 54 55 57 59
9 10 10 10 11 11 11 12 12 12 12 11 11 11 11 10 10 10 10 10 9 9 9 9 10 10 10 11 11 12 12 13 13 14 15 15 15 16 17 17 17 18 18 19 20 21 20 20 20 20 19 19 19 19 19 19 19 19 21 22 21 22 25 26 25 27 30 30 30 33 37 39 42 42 42 44 48 51 52 53 53 53 54 56 57 58 59
10 11 11 11 11 11 11 11 11 11 11 11 11 10 10 10 9 10 10 10 10 10 10 10 10 10 11 11 12 12 13 14 14 15 15 16 16 17 17 18 19 19 20 20 21 21 20 19 19 19 18 19 19 19 18 18 19 20 21 22 22 24 26 27 28 30 32 31 32 37 40 43 45 43 44 48 52 52 53 54 54 55 57 57 57 58 59
11 11 11 10 10 11 11 11 11 11 11 10 10 10 10 10 10 10 11 11 10 10 10 10 11 11 11 12 12 13 14 14 15 15 16 17 18 18 19 20 20 21 21 21 20 20 19 19 19 18 18 19 19 19 18 18 19 20 21 22 24 26 28 30 31 32 33 34 37 42 44 44 43 44 47 52 54 55 55 55 55 56 58 58 58 59 59
11 11 11 10 10 11 11 11 11 11 11 11 10 10 10 10 10 10 11 11 10 10 10 11 11 11 12 12 13 14 15 15 16 16 17 18 18 19 20 21 21 21 20 20 19 19 18 18 18 18 19 19 19 19 18 18 19 20 21 23 26 29 30 32 34 35 35 37 41 45 45 43 43 46 51 54 55 56 56 56 56 57 58 58 59 58 58
11 11 10 10 10 11 11 11 11 11 11 11 10 10 10 11 11 11 11 11 11 11 11 11 11 11 12 12 13 14 15 16 16 17 18 19 19 20 21 21 20 20 19 18 18 18 18 18 19 19 19 18 18 19 18 18 19 20 22 26 29 30 32 34 36 37 38 40 44 46 45 44 47 51 55 55 55 56 56 56 56 57 58 59 58 58 58
11 11 11 11 11 11 11 12 12 11 11 10 10 10 10 11 11 11 12 12 12 12 11 10 11 11 12 13 14 15 16 16 17 18 19 19 20 21 20 20 19 19 18 18 18 18 19 19 19 19 19 18 19 19 20 20 21 22 25 28 31 32 34 37 38 39 41 44 46 46 46 47 51 54 55 55 55 56 56 56 56 57 59 59 57 57 58
12 12 11 12 12 12 12 12 12 12 11 11 10 10 10 11 12 12 12 12 12 11 11 10 11 12 13 13 15 16 16 17 18 18 19 20 20 20 20 19 18 18 18 18 18 18 19 18 18 19 20 19 20 20 20 22 22 24 27 31 33 34 36 39 41 42 43 45 46 47 48 51 53 54 54 54 55 55 56 56 56 57 57 56 56 57 57
13 12 12 13 13 13 13 12 12 12 12 11 11 11 11 11 12 13 13 12 12 12 11 12 12 13 13 14 15 16 17 17 18 19 19 20 20 19 19 18 18 18 18 18 18 18 18 18 19 20 20 20 20 20 21 23 24 25 29 33 35 36 38 41 42 43 44 45 48 50 51 52 52 52 53 54 55 55 55 55 56 56 56 55 56 57 56
13 13 13 13 13 13 13 13 12 12 12 12 12 12 12 12 13 14 13 12 12 12 12 12 12 13 13 14 15 17 17 17 18 19 19 19 19 19 18 18 18 18 18 18 18 18 19 19 20 20 21 21 21 21 22 24 25 28 32 35 37 38 41 42 42 43 44 48 51 51 50 49 50 51 53 53 54 55 55 55 55 55 55 55 55 53 52
14 14 13 13 13 13 13 13 13 12 13 13 12 12 12 13 14 14 13 13 13 13 13 13 13 13 14 14 15 17 18 18 18 19 19 19 19 18 18 18 18 18 18 18 18 19 19 20 20 20 21 22 22 22 23 25 27 32 36 37 39 41 42 43 43 43 46 49 51 51 51 50 50 52 53 53 54 54 53 54 54 53 53 53 52 49 48
15 14 14 14 14 14 13 13 13 12 12 13 13 13 14 15 14 13 13 13 13 13 13 13 13 13 14 14 15 17 18 18 18 19 18 19 19 18 18 19 19 19 19 19 19 19 20 20 20 21 22 23 23 23 24 27 31 35 37 39 41 42 43 43 44 45 47 49 49 50 51 52 52 52 52 53 53 51 52 54 54 52 51 51 49 48 48
15 15 15 14 14 14 13 13 13 12 13 13 13 13 15 15 15 13 13 13 13 13 13 13 13 14 15 15 15 17 19 18 18 19 18 19 19 18 18 19 19 19 20 20 20 20 20 21 21 21 23 24 25 25 26 30 34 37 38 41 42 43 43 44 45 46 48 49 49 49 50 51 52 52 51 51 50 50 51 53 52 50 50 49 48 48 48
16 16 15 15 14 14 14 14 13 13 14 13 13 13 14 15 15 15 14 13 13 13 13 14 14 14 15 15 15 17 19 19 18 19 19 19 19 19 19 19 19 20 20 20 20 21 21 22 22 23 24 26 26 26 29 34 37 39 40 42 43 43 44 46 47 48 49 49 49 49 50 51 51 50 49 49 50 51 51 51 50 49 49 48 48 48 49
17 17 16 15 15 15 15 15 15 15 15 14 13 13 14 14 14 15 15 15 14 13 13 14 14 14 15 15 16 18 19 19 18 19 19 18 19 19 19 19 19 20 20 20 21 22 23 23 23 24 25 26 27 28 32 35 38 40 42 43 43 43 45 47 48 50 50 49 48 49 49 50 50 49 48 49 50 50 50 49 49 49 48 48 49 49 50
18 17 17 16 16 16 16 16 16 16 15 14 13 13 13 14 14 14 15 15 16 15 14 13 14 15 16 16 17 19 19 19 19 19 19 19 19 20 20 20 20 20 20 21 22 23 23 24 24 25 26 26 27 29 33 36 39 41 42 42 42 43 45 47 49 50 50 49 48 49 49 49 48 48 48 48 49 48 48 48 49 49 49 50 50 51 52
19 19 18 18 18 18 18 17 17 16 15 15 14 14 14 14 14 15 15 15 15 16 15 14 14 16 16 17 17 19 19 19 19 19 19 19 20 20 20 20 20 20 21 22 23 24 24 24 25 25 26 26 28 31 35 37 39 40 41 41 42 44 46 48 49 49 49 50 50 51 51 51 50 49 49 49 48 48 48 48 49 49 50 50 51 52 54
20 19 19 19 19 19 18 18 18 17 16 16 15 15 15 15 15 15 16 15 15 15 16 15 15 16 17 18 18 19 19 19 19 19 20 20 20 20 20 20 21 21 21 22 24 24 25 25 26 26 26 28 30 34 36 38 40 41 40 41 43 45 46 48 48 47 48 49 50 50 50 50 50 51 50 48 48 48 48 48 49 50 51 51 53 54 55
21 20 20 20 20 20 19 19 18 17 17 17 16 15 15 16 16 15 15 15 15 15 16 16 16 17 18 18 18 19 20 20 20 20 20 20 21 21 21 21 21 22 22 23 24 25 25 25 26 26 28 30 32 35 37 40 41 41 40 41 43 45 46 47 47 46 47 48 49 48 48 48 49 49 49 48 48 48 49 49 50 51 52 53 54 55 56
21 21 21 21 21 21 21 21 20 19 18 17 17 16 16 16 16 16 15 15 15 16 16 17 18 18 19 19 19 19 20 21 20 20 20 21 22 21 21 22 22 22 22 24 25 25 25 26 27 28 29 31 34 37 39 41 42 41 40 41 44 46 46 46 46 46 47 48 48 48 48 49 49 48 48 48 48 48 49 50 52 53 53 54 55 55 56
22 22 22 22 22 22 22 22 22 20 19 18 17 17 17 16 16 16 16 15 15 16 17 18 18 19 20 20 20 20 20 21 21 21 21 22 22 22 22 22 23 23 23 25 25 25 26 26 27 29 31 32 35 38 40 42 41 40 40 42 45 46 46 46 46 47 47 47 47 48 49 49 48 48 47 47 48 49 49 51 52 53 53 54 54 55 56
22 23 23 22 23 23 23 23 23 21 20 19 18 18 17 17 16 16 16 16 16 17 18 19 20 21 20 20 21 20 21 21 22 21 21 22 23 22 22 23 24 24 24 25 26 26 26 27 28 30 32 34 37 39 41 41 41 39 40 43 46 46 46 46 46 47 47 47 48 49 49 48 48 47 47 48 49 49 50 51 52 53 53 54 54 55 56
22 23 24 23 24 24 24 23 23 22 21 20 19 18 18 18 17 16 17 17 18 18 19 20 21 21 21 21 21 21 21 22 22 22 22 23 23 23 23 24 25 25 25 25 26 26 26 27 29 30 33 35 38 40 41 41 40 39 41 44 46 46 46 46 46 46 47 48 49 49 48 48 48 47 47 48 49 50 51 52 52 52 53 54 54 55 56
23 24 24 24 24 26 25 23 24 23 22 21 20 18 18 18 18 17 17 18 19 19 20 21 21 21 21 21 21 21 22 22 23 23 23 23 24 23 23 24 25 25 25 25 26 26 27 29 30 32 34 37 39 40 41 41 39 39 42 45 46 46 46 46 46 47 48 49 50 50 49 48 48 48 48 48 49 49 51 52 52 52 53 54 54 55 56
23 24 24 23 24 26 25 24 24 24 22 22 21 20 19 19 19 18 19 19 20 21 22 22 21 21 22 22 21 22 22 23 23 23 24 24 24 24 24 25 25 25 25 26 27 27 28 30 32 34 36 39 40 40 41 40 39 40 43 46 46 47 47 46 46 47 49 50 50 50 49 48 48 48 48 49 49 49 50 51 52 52 53 54 54 55 56
23 24 24 24 24 25 25 25 24 24 23 22 22 21 21 21 20 20 20 20 21 21 22 22 21 21 22 22 22 22 23 23 23 24 24 24 24 24 25 25 25 25 26 27 28 28 29 31 33 35 37 39 40 40 40 39 40 42 45 46 47 47 47 46 47 48 50 50 50 49 49 49 48 48 48 49 49 49 50 50 51 52 53 53 54 55 55
23 24 24 24 24 25 25 25 24 24 24 23 23 23 22 22 21 21 21 21 22 22 22 22 21 21 22 22 22 22 23 24 24 24 25 25 24 25 25 25 25 26 26 26 28 29 31 33 34 37 38 39 40 40 40 39 41 44 46 47 47 47 47 47 48 49 50 50 50 49 49 49 48 48 48 49 49 49 50 51 52 52 52 53 54 55 55
23 24 24 24 24 25 25 25 25 25 25 24 24 24 23 23 22 22 22 22 22 22 22 22 22 22 22 23 22 23 23 24 24 24 25 25 25 24 25 25 26 27 27 27 28 31 32 34 35 37 38 39 39 40 40 40 42 44 46 47 47 47 46 47 49 50 50 49 49 49 49 49 48 48 48 48 49 49 50 51 51 52 53 54 54 55 56
24 24 25 25 25 25 25 25 25 26 26 25 25 25 24 24 23 23 23 23 23 23 22 22 22 22 22 23 23 23 23 24 24 24 25 25 25 25 25 26 26 26 27 28 30 32 34 35 36 37 38 39 39 40 40 41 43 45 46 46 46 46 46 48 49 49 49 49 49 49 49 48 48 48 48 48 49 49 50 50 51 52 53 54 54 55 56
24 25 25 26 26 25 25 25 26 26 25 25 25 26 25 25 25 24 24 24 24 23 22 22 23 23 23 23 23 23 24 24 24 25 25 25 25 25 25 26 26 27 28 30 32 33 34 35 36 38 38 39 40 40 41 42 44 45 46 46 46 46 46 48 49 49 49 49 49 49 49 48 48 48 48 48 48 49 49 50 51 52 53 53 54 55 56
24 25 25 26 26 25 25 26 26 26 26 26 26 26 26 26 26 25 24 24 24 23 23 23 23 23 23 23 23 24 24 24 25 25 25 25 25 25 25 26 27 28 30 31 33 34 35 36 37 38 38 39 40 40 41 43 44 45 45 46 45 46 47 48 49 49 49 49 49 49 49 48 48 48 48 48 48 49 49 50 51 52 53 53 53 54 55
Wind_Direction
292 293 293 299 309 316 319 322 324 327 326 319 316 315 312 313 311 311 323 326 318 316 317 314 313 314 313 311 309 309 308 307 308 307 303 306 308 307 306 305 305 306 306 305 304 303 304 304 305 305 305 308 310 309 308 308 307 307 307 308 308 307 305 304 303 306 310 311 309 308 308 307 306 306 306 305 304 305 303 303 305 302 300 302 302 302 308
289 294 300 306 313 316 318 321 324 327 327 322 320 320 317 315 313 315 327 328 319 314 316 314 315 316 314 315 314 311 309 308 310 309 306 306 307 306 308 307 306 308 307 306 305 306 306 306 307 308 306 308 312 311 309 308 308 308 308 309 309 306 306 307 308 311 313 311 309 309 309 308 306 307 308 306 307 309 307 305 304 301 298 298 299 302 308
292 300 306 311 313 314 316 319 321 324 327 326 327 326 320 316 316 317 328 336 332 319 317 317 316 315 315 316 316 314 311 310 310 310 309 308 306 307 309 308 308 308 307 307 307 307 307 307 309 310 308 308 311 312 310 308 308 309 309 309 309 307 308 308 309 311 312 312 313 313 313 312 310 309 309 308 307 307 306 305 303 301 302 298 296 299 304
298 305 308 310 310 312 315 317 320 324 329 333 334 333 326 319 321 321 324 334 339 330 325 321 317 316 314 314 315 314 312 312 310 308 308 309 307 308 309 308 308 309 308 307 307 307 308 309 310 309 307 308 310 311 310 308 308 309 308 309 309 309 309 307 305 305 306 308 313 315 315 312 310 310 309 308 307 307 306 304 301 301 303 300 297 299 303
300 305 306 307 309 312 314 317 321 327 333 336 337 339 335 324 321 321 320 325 330 330 329 327 321 317 314 313 314 312 311 312 311 308 308 310 308 308 309 307 306 308 308 308 308 309 309 309 309 308 307 308 309 309 309 309 308 309 309 309 311 310 309 310 308 304 304 308 312 314 312 309 308 309 310 309 308 306 302 299 300 305 306 303 305 305 306
300 302 304 307 311 314 316 320 325 329 333 335 335 337 336 328 321 320 318 318 319 319 323 325 322 318 316 313 313 313 312 312 312 310 310 311 308 308 309 307 305 306 309 309 309 310 309 307 308 308 309 309 308 309 310 309 310 311 310 311 312 310 310 314 315 310 308 309 310 310 309 308 308 308 308 308 307 304 301 299 302 306 304 304 308 309 308
299 303 306 310 313 316 319 323 326 328 328 331 335 333 330 326 321 318 316 316 315 315 318 320 318 318 318 315 312 312 312 312 312 311 311 311 310 308 308 308 307 307 308 308 308 309 309 308 308 308 309 309 309 310 311 310 312 312 312 313 314 310 310 316 315 312 311 311 311 312 311 310 311 309 308 308 307 303 302 302 304 305 303 304 308 309 308
303 308 310 313 315 317 320 321 324 327 326 326 330 327 321 317 315 314 315 317 318 317 317 317 316 318 317 315 315 313 311 312 314 311 309 310 311 308 307 310 311 310 308 306 305 308 309 309 308 308 309 310 310 310 311 312 313 313 313 314 314 311 312 317 315 313 314 315 315 314 312 310 310 311 312 313 311 309 308 308 309 309 307 307 309 309 310
311 314 316 318 319 319 321 321 322 323 321 319 320 319 317 315 314 314 315 317 317 318 319 318 317 318 317 316 316 314 312 312 313 312 309 309 309 307 307 310 312 311 309 305 305 309 310 309 309 309 310 311 312 312 312 311 312 313 313 314 314 313 313 316 317 314 315 316 315 313 312 311 310 314 319 319 316 315 313 311 311 311 311 312 312 311 313
319 321 321 322 322 321 320 318 316 315 313 312 313 313 313 315 316 316 317 318 317 318 320 320 319 319 318 316 315 314 314 313 312 312 310 309 309 308 308 309 310 309 309 307 309 313 313 312 313 313 312 313 314 314 314 314 313 313 314 315 316 315 314 316 317 313 312 316 317 315 313 311 311 317 321 320 318 316 314 313 312 311 312 313 313 313 315
327 326 325 323 320 317 314 312 311 309 308 309 311 311 311 314 317 318 319 318 317 318 319 318 318 318 315 314 313 313 313 311 310 310 311 310 311 310 309 309 310 311 311 313 315 317 317 317 318 318 318 319 320 318 318 321 320 318 316 316 317 317 315 316 315 311 312 317 317 314 312 312 314 317 320 320 318 316 315 315 314 312 312 313 313 314 316
332 329 326 321 317 314 312 311 310 309 308 308 311 313 312 314 318 318 317 317 316 317 317 316 315 316 314 313 312 311 311 311 310 310 311 311 312 311 310 310 312 314 315 317 317 318 319 321 321 324 327 326 326 326 326 327 325 322 320 318 318 317 316 316 315 312 313 317 320 318 316 316 315 314 320 321 316 313 314 313 311 312 314 315 315 316 317
334 329 324 321 318 317 315 314 313 312 309 308 311 313 312 313 315 316 315 316 315 314 316 316 314 314 314 313 312 312 313 313 313 311 311 312 313 313 314 314 316 318 319 319 320 319 319 320 321 324 325 323 323 327 328 328 327 325 323 321 318 317 316 316 315 314 314 317 321 320 317 318 317 314 319 322 318 316 317 315 313 315 317 317 317 317 317
332 329 327 326 325 323 321 318 316 314 311 309 310 313 312 312 314 315 314 316 316 315 315 317 316 315 315 314 314 316 316 315 315 315 315 316 316 317 320 320 320 323 323 321 322 321 320 321 322 322 321 320 320 321 322 324 326 325 324 321 318 316 317 317 316 315 316 316 316 315 314 317 320 320 322 322 320 319 318 316 316 318 317 318 318 318 318
336 335 335 334 331 329 327 323 321 319 316 314 313 314 314 314 314 315 315 317 318 317 317 318 317 316 317 316 316 319 319 319 320 320 321 322 322 324 327 326 325 327 326 324 324 323 323 323 323 323 323 322 321 320 320 320 322 323 322 320 320 319 319 319 317 317 318 317 316 317 315 315 321 322 322 321 319 317 316 315 316 318 318 319 320 319 319
344 343 342 339 337 335 333 330 329 326 322 321 319 318 318 317 316 318 318 319 320 319 318 318 317 317 319 320 321 322 323 325 326 327 329 331 332 333 332 330 328 327 327 327 327 326 326 325 324 324 324 322 321 320 320 319 320 321 320 320 322 323 322 321 319 318 319 319 318 318 316 317 321 321 321 321 320 317 316 314 315 318 320 321 321 319 319
350 349 347 345 343 343 340 338 337 334 330 328 325 323 322 320 318 319 319 319 320 320 318 319 319 319 321 324 326 327 329 331 333 334 336 337 336 334 332 330 328 326 327 329 328 328 329 328 326 324 323 323 322 320 320 321 321 321 321 322 324 324 323 322 321 320 321 320 318 316 315 318 320 321 322 323 320 318 317 315 315 319 321 321 320 319 318
355 354 353 351 350 348 347 345 343 340 337 335 333 330 326 322 319 318 318 318 319 320 321 322 323 323 326 329 332 333 334 336 336 336 335 335 334 333 332 330 328 328 329 329 329 330 330 327 326 325 323 324 323 320 320 322 322 322 322 322 323 324 323 323 322 322 322 320 317 317 316 317 321 323 324 324 321 318 318 316 317 319 320 320 320 319 318
358 357 356 355 353 352 351 348 345 343 340 338 335 330 326 323 320 318 318 320 321 323 326 328 329 331 334 335 337 338 337 336 336 334 332 333 333 332 331 330 330 330 331 330 330 330 329 327 326 325 323 323 323 322 322 323 323 323 323 323 325 326 324 323 323 323 323 321 318 318 317 319 324 325 324 325 324 320 318 318 318 319 319 319 319 319 319
360 358 357 356 355 353 351 347 343 340 337 334 332 328 326 324 322 320 320 323 327 331 334 335 336 339 340 339 339 338 337 335 335 333 332 332 332 331 331 331 331 331 331 331 331 330 328 327 326 324 322 323 323 323 323 324 324 325 325 325 327 325 323 325 326 324 323 322 321 321 319 322 327 327 324 325 325 321 318 319 319 319 319 319 319 319 319
360 358 356 354 351 348 345 341 338 335 332 331 330 328 328 328 327 326 327 327 330 335 337 338 339 340 341 342 341 339 337 336 335 333 331 331 331 331 331 331 331 331 331 331 331 329 327 326 326 324 323 322 323 323 323 323 325 327 327 325 326 326 326 326 326 327 326 323 322 322 320 322 327 327 323 323 324 321 320 319 319 319 319 319 319 319 320
357 354 350 347 343 339 337 336 334 333 332 331 331 331 332 333 333 335 338 339 339 340 340 340 342 343 342 342 341 340 338 337 335 333 332 331 331 331 331 330 330 331 331 330 329 328 326 326 325 324 323 323 325 325 324 324 325 326 327 327 327 330 330 325 323 325 324 319 316 318 318 321 324 323 321 322 323 322 321 320 319 319 320 321 321 320 320
348 345 342 339 337 335 335 334 334 334 334 334 335 336 336 336 336 338 341 345 348 347 343 341 341 342 341 340 340 339 337 336 334 333 333 332 332 332 332 331 331 330 329 329 328 327 326 325 325 325 325 325 326 326 326 328 327 324 327 329 328 329 331 326 322 323 322 317 315 317 319 321 321 320 321 323 323 322 321 321 320 321 322 322 322 321 321
343 341 339 338 338 337 337 337 337 337 337 338 340 341 340 339 338 338 338 338 339 340 339 339 338 338 338 337 337 336 335 335 334 332 333 333 332 332 332 331 330 329 329 329 328 326 327 327 325 326 327 326 326 326 326 329 328 326 327 328 327 327 329 326 323 323 322 320 319 321 321 320 320 321 323 324 323 322 322 322 322 323 323 322 322 322 322
345 344 344 343 343 343 343 343 343 343 343 342 343 345 344 340 336 336 336 336 334 334 335 337 337 336 334 333 334 334 335 334 333 332 332 332 331 331 331 330 329 328 328 329 328 327 329 329 327 327 328 326 327 327 326 327 329 328 328 330 327 325 326 326 324 323 321 318 319 321 321 320 321 323 325 324 324 324 323 323 323 323 323 322 322 322 323
350 349 349 348 347 347 347 347 346 346 345 343 342 343 343 341 338 337 338 338 336 335 335 334 333 333 334 334 334 334 333 333 333 332 332 331 330 330 330 329 329 329 329 330 330 330 331 331 330 329 329 328 329 329 328 329 331 330 331 332 328 324 324 325 324 322 321 320 321 323 322 321 322 324 325 325 324 324 324 324 324 323 323 323 323 323 324
355 354 353 352 351 350 349 348 347 345 344 343 343 342 343 343 341 338 339 338 335 334 335 334 332 332 335 336 335 334 333 333 332 332 332 332 331 331 331 330 331 331 332 332 333 333 333 333 332 330 330 331 332 332 330 329 329 329 330 332 329 327 326 326 325 324 324 324 325 326 324 323 324 325 325 325 325 324 324 324 324 324 324 324 323 324 324
1 360 358 356 354 354 353 351 350 349 347 346 347 346 345 344 342 340 339 338 335 333 334 336 334 333 333 335 336 335 334 333 333 332 333 333 333 333 333 333 334 335 335 335 335 335 334 334 333 331 330 331 331 330 328 328 328 329 330 332 331 330 328 328 327 326 325 325 327 328 326 324 323 324 325 325 325 325 324 324 325 325 325 324 324 325 325
4 3 0 358 355 354 353 352 351 350 348 346 345 343 342 342 343 342 340 339 339 339 339 339 336 333 331 333 335 335 335 334 334 334 333 334 335 336 337 337 338 338 338 338 338 338 337 336 334 333 332 331 329 329 328 327 328 330 332 332 331 330 329 328 326 325 325 326 328 328 326 324 323 324 325 325 326 325 325 326 326 326 326 326 326 327 326
2 1 359 357 356 354 353 352 351 349 348 346 344 343 340 339 340 340 338 336 336 336 335 334 333 332 332 334 336 336 335 335 336 336 336 337 339 339 340 340 340 339 339 339 340 339 337 337 336 335 335 333 331 330 329 328 329 331 332 332 331 330 329 328 326 326 327 328 328 327 325 324 323 324 325 326 326 326 327 327 327 327 328 328 328 328 328
1 359 357 356 355 355 355 354 353 351 351 349 346 345 342 338 337 337 336 334 334 334 335 336 334 331 331 333 337 338 336 335 337 338 338 339 341 341 341 342 341 341 342 342 342 340 337 337 337 337 337 337 335 331 329 329 329 329 331 331 330 329 329 328 328 328 328 328 327 327 326 325 325 326 327 327 328 328 328 328 328 329 329 329 329 329 329
2 359 357 356 355 355 355 355 354 353 354 353 352 349 344 338 336 335 335 335 334 333 335 336 334 330 329 331 335 339 338 336 337 338 339 339 340 341 342 343 342 342 343 342 341 340 338 338 340 339 338 338 336 331 329 330 330 329 330 330 330 329 329 329 329 329 329 328 328 328 327 328 329 328 328 329 330 330 330 330 330 330 330 330 331 332 332
3 1 359 358 357 357 357 357 355 355 356 356 356 355 350 345 341 338 338 339 339 337 336 335 333 332 331 331 334 338 339 337 337 339 339 340 340 339 340 341 341 341 341 340 339 338 338 338 340 340 339 337 335 331 330 332 331 330 330 330 330 330 330 330 330 330 330 330 330 329 328 328 329 329 328 330 330 330 331 332 331 331 332 332 333 334 334
5 3 2 1 0 360 359 358 357 355 354 353 352 353 353 353 350 346 341 340 340 341 342 340 336 333 334 333 334 338 340 339 338 339 339 340 340 339 338 338 339 339 340 340 339 338 338 337 337 336 336 336 334 332 331 332 332 331 331 331 331 331 331 331 331 331 331 331 331 331 329 329 330 329 329 330 331 331 332 333 333 333 334 335 335 335 335
6 5 5 4 2 1 360 359 357 353 351 351 350 349 352 355 357 356 351 345 342 342 343 343 340 337 336 336 335 338 340 339 339 339 339 338 339 339 338 338 338 338 338 338 339 339 338 337 335 334 333 333 333 332 331 331 331 332 332 332 333 333 333 333 332 332 333 333 332 332 332 331 331 331 331 332 332 333 333 334 335 335 335 336 336 335 335
9 8 8 7 5 4 2 0 357 353 351 350 348 348 349 351 354 357 358 356 353 348 343 341 341 340 338 336 335 337 338 339 339 339 338 338 338 338 338 338 338 337 337 338 339 339 337 336 335 334 332 332 332 333 333 332 332 333 334 334 334 335 334 333 333 334 334 334 334 334 333 333 333 334 334 334 334 334 335 336 336 337 337 336 336 335 335
13 12 11 10 8 6 3 359 356 354 353 352 350 349 349 349 349 350 353 355 356 354 350 345 342 341 339 337 336 337 338 339 339 339 339 338 337 337 338 338 337 336 336 337 337 338 338 337 336 335 333 333 334 335 335 334 334 335 335 335 335 335 335 335 335 335 335 335 335 335 335 335 335 336 336 335 336 336 337 337 337 337 337 336 335 335 335
16 14 13 11 8 5 1 358 357 356 356 354 353 350 348 347 347 346 346 347 349 351 351 348 344 341 340 338 338 339 340 339 338 339 339 338 337 337 337 338 337 335 335 335 335 335 337 337 336 334 334 333 335 337 337 336 336 336 335 335 336 336 337 337 337 337 337 337 337 337 337 337 337 336 336 336 337 337 337 338 338 337 337 336 335 335 335
16 15 13 11 9 6 2 359 358 358 357 354 353 350 348 347 347 345 343 344 345 346 348 347 345 343 342 340 339 340 341 340 338 339 339 338 338 337 336 336 336 336 335 335 335 335 336 335 334 333 333 333 335 337 338 338 337 337 336 336 337 338 338 338 338 338 338 337 337 337 338 338 338 337 336 337 337 337 338 338 337 337 336 336 336 336 336
16 14 12 11 9 7 4 1 360 358 356 354 353 351 350 350 348 345 344 345 346 346 345 345 343 342 343 341 339 339 342 341 339 338 338 338 337 337 336 336 336 336 335 335 335 335 335 335 334 333 333 334 336 338 338 338 338 337 337 338 339 339 339 339 339 338 338 337 337 338 339 339 338 337 337 337 337 337 337 338 337 337 336 336 336 336 336
14 13 12 11 10 7 5 4 2 359 357 356 355 353 351 349 349 348 348 348 346 344 344 344 343 342 342 342 339 338 340 341 339 338 338 337 337 337 336 336 336 337 335 334 335 335 336 335 334 333 334 336 337 338 338 338 338 338 338 339 339 339 340 340 339 339 339 339 339 339 339 339 338 337 337 337 337 337 337 337 337 337 337 337 337 337 337
13 12 11 11 10 8 5 4 3 0 358 357 355 352 350 349 349 350 350 348 344 343 343 344 343 340 339 340 338 337 338 340 339 338 337 337 337 337 336 335 337 338 336 334 335 336 336 335 334 334 335 337 338 339 339 338 338 338 339 339 340 340 340 340 339 339 340 340 340 339 339 339 338 338 337 337 337 337 337 337 337 337 337 337 337 337 338
12 11 9 9 8 6 5 4 3 2 0 358 356 353 351 350 350 348 347 345 344 343 342 342 341 340 339 339 339 337 337 339 339 338 337 337 337 337 337 337 338 337 335 335 336 336 335 334 334 334 336 338 338 338 339 338 338 339 339 340 340 340 340 340 340 340 340 340 340 339 339 339 338 338 337 337 337 337 337 337 337 337 338 338 338 338 339
7 6 6 6 5 4 3 2 2 3 1 358 356 354 352 350 348 346 344 344 343 343 341 341 340 339 339 339 339 338 338 338 339 338 338 337 337 338 338 338 336 335 335 335 336 335 335 334 333 335 337 338 338 338 339 339 339 339 339 340 340 341 341 340 340 341 340 340 340 339 339 339 338 338 338 337 337 338 338 338 338 338 338 338 339 339 339
3 2 4 4 3 3 3 1 1 2 0 357 355 354 351 348 346 344 343 342 341 340 340 339 339 337 337 337 339 339 338 338 338 338 337 337 338 338 337 336 336 336 336 336 335 335 335 334 335 336 338 339 338 338 339 339 339 340 339 340 340 341 341 341 341 341 340 340 340 339 339 339 339 339 338 338 338 338 338 338 339 339 339 339 340 340 340
1 1 2 3 1 1 2 1 359 358 357 355 354 353 350 347 344 342 341 341 340 339 338 338 338 338 338 338 339 339 338 338 338 337 337 338 338 336 335 335 336 337 336 335 335 334 334 335 336 338 338 338 338 338 339 339 340 340 340 340 340 341 341 341 341 341 340 340 339 339 340 340 340 339 339 339 339 339 339 339 340 340 340 340 340 340 341
358 358 0 1 359 358 359 359 357 356 355 354 352 351 349 346 343 342 341 340 339 338 338 338 338 338 338 338 338 338 338 339 338 338 338 338 337 336 336 337 337 336 335 335 334 333 334 335 337 338 338 337 338 338 339 340 340 340 340 340 340 341 341 341 341 341 340 340 340 340 340 340 340 340 339 339 339 340 340 340 340 340 340 340 341 341 342
355 355 357 358 356 355 356 357 356 355 354 353 351 350 348 347 345 344 342 341 340 339 339 339 339 338 338 338 338 337 338 339 339 337 337 338 337 337 337 337 336 335 334 334 334 334 335 337 337 337 337 337 338 339 339 340 340 340 340 340 340 341 341 341 341 340 340 340 340 340 341 340 340 340 340 340 340 340 341 341 341 341 341 341 342 342 343
356 356 356 356 355 354 354 354 354 353 352 351 350 349 349 347 345 344 343 342 341 340 339 339 339 338 337 338 338 337 337 338 337 337 338 339 338 337 337 336 335 335 335 334 334 335 336 336 336 336 336 337 338 339 339 339 339 339 339 340 340 340 341 341 341 340 340 340 340 341 341 341 340 340 340 340 340 341 341 341 342 342 342 342 343 343 343
355 355 354 354 353 352 352 352 352 351 349 349 349 349 348 347 345 343 343 342 341 340 339 339 339 338 337 338 339 338 336 336 337 337 338 338 337 337 337 336 334 334 335 335 335 335 336 336 336 336 337 338 339 339 339 339 339 339 339 340 340 340 341 341 341 341 341 340 340 341 341 341 341 341 341 341 341 341 341 342 342 343 343 343 343 343 344
351 352 352 351 351 351 350 351 351 349 348 348 348 347 346 346 344 343 342 342 342 341 339 338 338 338 338 339 338 336 335 336 337 338 337 336 336 337 337 335 334 335 335 335 335 335 335 336 336 337 338 338 338 338 338 338 339 339 339 339 340 340 340 341 341 341 341 340 340 341 341 341 341 341 341 341 341 341 342 342 343 344 344 344 344 344 344
348 349 350 350 350 350 349 349 349 349 348 347 346 346 345 344 343 342 341 341 341 341 339 337 338 339 338 337 336 336 336 336 337 336 336 335 336 336 335 335 335 335 335 334 334 335 335 336 336 337 338 338 338 338 338 338 339 339 339 339 340 340 340 341 341 341 341 340 341 341 341 341 341 341 341 341 342 342 342 343 343 344 344 345 345 345 345